Weather History for Homestead AFB, FL

Change the Weather History Date:

Friday, May 9, 2014

  Actual Average Record
Temperature  
Mean Temperature 80 °F -  
Max Temperature 85 °F 86 °F 94 °F (1933)
Min Temperature 77 °F 66 °F 47 °F (1960)
Cooling Degree Days 16    
Growing Degree Days 30 (Base 50)    
Moisture  
Dew Point 68 °F    
Average Humidity 66    
Maximum Humidity 76    
Minimum Humidity 58    
Precipitation  
Precipitation 0.00 in - - ()
Sea Level Pressure  
Sea Level Pressure 30.14 in    
Wind  
Wind Speed 13 mph (East)    
Max Wind Speed 17 mph    
Max Gust Speed 24 mph    
Visibility 10 miles    
Events      
Averages and records for this station are not official NWS values.
T = Trace of Precipitation, MM = Missing Value Source: NWS Daily Summary

Daily Weather History Graph

Daily Weather History Graph

Search for Another Location

Airport:

Trip Planner

Search our weather history database for the weather conditions in past years. The results will help you decide how hot, cold, wet, or windy it might be!

Date:

Astronomy

May. 09, 2014 Rise Set
Actual Time 6:39 AM EDT 7:56 PM EDT
Civil Twilight 6:15 AM EDT 8:21 PM EDT
Nautical Twilight 5:46 AM EDT 8:50 PM EDT
Astronomical Twilight 5:15 AM EDT 9:20 PM EDT
Moon 3:22 PM EDT (5/9) 3:08 AM EDT (5/9)
Length of Visible Light 14h 05m
Length of Day
13h 16m
Waxing Gibbous, 73% of the Moon is Illuminated
May 9
Waxing Gibbous
May 14
Full
May 21
Last Quarter
May 28
New
Jun 5
First Quarter

Hourly Weather History & Observations

Time (EDT) Temp. Heat Index Dew Point Humidity Pressure Visibility Wind Dir Wind Speed Gust Speed Precip Events Conditions
12:58 AM 77.9 °F - 67.3 °F 70% 30.17 in 10.0 mi East 11.5 mph 18.4 mph N/A   Scattered Clouds
1:58 AM 77.5 °F - 66.0 °F 68% 30.15 in 10.0 mi East 10.4 mph - N/A   Partly Cloudy
2:58 AM 77.7 °F - 67.3 °F 70% 30.13 in 10.0 mi East 15.0 mph 21.9 mph N/A   Partly Cloudy
3:58 AM 77.7 °F - 67.6 °F 71% 30.12 in 10.0 mi ESE 10.4 mph - N/A   Clear
4:58 AM 77.9 °F - 68.0 °F 71% 30.13 in 10.0 mi East 13.8 mph - N/A   Partly Cloudy
5:58 AM 77.4 °F - 67.1 °F 71% 30.14 in 10.0 mi ESE 13.8 mph 19.6 mph N/A   Clear
6:58 AM 77.4 °F - 65.3 °F 66% 30.16 in 10.0 mi ESE 11.5 mph - N/A   Clear
7:58 AM 79.0 °F - 65.8 °F 64% 30.17 in 10.0 mi ESE 10.4 mph - N/A   Clear
8:58 AM 81.3 °F 83.8 °F 67.3 °F 62% 30.19 in - ESE 17.3 mph 21.9 mph N/A   Partly Cloudy
9:03 AM 80.6 °F 82.7 °F 66.2 °F 61% 30.17 in - East 15.0 mph - N/A   Clear
9:58 AM 83.1 °F 85.7 °F 66.7 °F 58% 30.20 in 10.0 mi East 11.5 mph - N/A   Clear
10:58 AM 83.3 °F 86.4 °F 68.0 °F 60% 30.19 in 10.0 mi East 15.0 mph 20.7 mph N/A   Clear
11:58 AM 83.8 °F 86.7 °F 67.8 °F 58% 30.19 in 10.0 mi East 16.1 mph 21.9 mph N/A   Clear
12:58 PM 84.6 °F 87.9 °F 68.4 °F 58% 30.17 in 10.0 mi East 16.1 mph 21.9 mph N/A   Clear
1:55 PM 84.2 °F 87.3 °F 68.0 °F 58% 30.14 in 10.0 mi East 13.8 mph 20.7 mph N/A   Scattered Clouds
1:58 PM 84.2 °F 87.3 °F 68.2 °F 58% 30.15 in 10.0 mi East 15.0 mph 21.9 mph N/A   Scattered Clouds
2:58 PM 84.4 °F 87.9 °F 68.7 °F 59% 30.13 in 10.0 mi East 15.0 mph - N/A   Clear
3:58 PM 84.7 °F 88.5 °F 69.1 °F 59% 30.11 in 10.0 mi East 17.3 mph - N/A   Clear
4:58 PM 83.3 °F 87.4 °F 70.0 °F 64% 30.10 in 10.0 mi ENE 12.7 mph - N/A   Clear
5:58 PM 82.6 °F 86.8 °F 70.5 °F 67% 30.09 in 10.0 mi ENE 12.7 mph - N/A   Clear
6:58 PM 81.3 °F 85.2 °F 70.5 °F 70% 30.10 in 10.0 mi ENE 10.4 mph - N/A   Partly Cloudy
7:58 PM 79.2 °F - 70.5 °F 75% 30.10 in 10.0 mi East 8.1 mph - N/A   Partly Cloudy
8:58 PM 78.8 °F - 70.5 °F 76% 30.12 in 10.0 mi East 8.1 mph - N/A   Partly Cloudy
9:58 PM 78.8 °F - 70.2 °F 75% 30.12 in 10.0 mi ENE 11.5 mph - N/A   Clear
10:58 PM 79.0 °F - 70.5 °F 75% 30.12 in 10.0 mi East 16.1 mph 24.2 mph N/A   Partly Cloudy
11:58 PM 79.0 °F - 69.8 °F 73% 30.12 in 10.0 mi East 16.1 mph 23.0 mph N/A   Clear